This is the latest recevied weather packets stored in our database for station/object K5IDL. If no packets are shown the sender has not sent any weather packets the latest 10 day(s).
| Time | Temp. | Humidity | Pressure | Rain* | Wind** | Luminosity | Snow |
|---|---|---|---|---|---|---|---|
| 1778017879 | 32.22° C | 52% | 1004.6 hPa | 0 mm | - | 87 W/m² | - |
| 1778017577 | 32.22° C | 53% | 1004.8 hPa | 0 mm | - | 62 W/m² | - |
| 1778017274 | 32.22° C | 52% | 1004.6 hPa | 0 mm | - | 60 W/m² | - |
| 1778016972 | 32.78° C | 53% | 1004.7 hPa | 0 mm | - | 79 W/m² | - |
| 1778016668 | 32.22° C | 54% | 1004.7 hPa | 0 mm | - | 102 W/m² | - |
| 1778016364 | 31.67° C | 55% | 1005 hPa | 0 mm | - | 123 W/m² | - |
| 1778016063 | 31.67° C | 55% | 1004.7 hPa | 0 mm | - | 72 W/m² | - |
| 1778015758 | 32.22° C | 54% | 1004.9 hPa | 0 mm | - | 168 W/m² | - |
| 1778015456 | 31.67° C | 54% | 1005 hPa | 0 mm | - | 90 W/m² | - |
| 1778015152 | 32.22° C | 54% | 1005.2 hPa | 0 mm | - | 63 W/m² | - |
| 1778014850 | 32.22° C | 54% | 1005 hPa | 0 mm | - | 67 W/m² | - |
| 1778014547 | 31.67° C | 58% | 1005 hPa | 0 mm | - | 89 W/m² | - |
| 1778014244 | 31.67° C | 58% | 1005.3 hPa | 0 mm | - | 101 W/m² | - |
| 1778013942 | 31.67° C | 59% | 1005.4 hPa | 0 mm | - | 102 W/m² | - |
| 1778013639 | 31.67° C | 58% | 1005.1 hPa | 0 mm | - | 77 W/m² | - |
| 1778013335 | 31.67° C | 59% | 1005.6 hPa | 0 mm | - | 113 W/m² | - |
| 1778013033 | 31.67° C | 58% | 1005.5 hPa | 0 mm | - | 118 W/m² | - |
| 1778012728 | 31.11° C | 60% | 1005.6 hPa | 0 mm | - | 137 W/m² | - |
| 1778012424 | 31.67° C | 59% | 1005.4 hPa | 0 mm | - | 116 W/m² | - |
| 1778012122 | 31.11° C | 59% | 1005.5 hPa | 0 mm | - | 158 W/m² | - |
| 1778011819 | 31.11° C | 58% | 1005.4 hPa | 0 mm | - | 98 W/m² | - |
| 1778011517 | 31.67° C | 59% | 1005.4 hPa | 0 mm | - | 175 W/m² | - |
| 1778011214 | 31.11° C | 59% | 1005.5 hPa | 0 mm | - | 260 W/m² | - |
| 1778010910 | 31.11° C | 60% | 1005.7 hPa | 0 mm | - | 257 W/m² | - |
| 1778010607 | 31.11° C | 57% | 1005.5 hPa | 0 mm | - | 152 W/m² | - |
* Rain latest hour (hover to see other rain measurements)
** Current wind speed in m/s (hover to see current wind gust speed)